Location: Kerb�bon
(47.7970°N, 3.3487°W)
Time: 09:43:20
(UTC+00:00)

BREEZE-M DEB (TANK) - Pass Details

Date: 12 May 2021
Orbit: 320 x 13078 km, 49.7° (Epoch: 17 June)

Event Time Altitude Azimuth Distance (km) Brightness Sun altitude
Rises 23:20:38 0° 289° (WNW) 9,847 9.6 -22.9°
Reaches altitude 10° 23:30:07 10° 290° (WNW) 6,678 8.6 -23.2°
Maximum altitude 23:44:48 72° 210° (SSW) 1,164 4.2 -23.6°
Enters shadow 23:46:18 48° 142° (SE) 1,176 4.0 -23.6°
